Terminal Aerodrome Forecast
Issued by NWS Twin Cities, MN

Home | Current Version | Previous Version | Graphics & Text | Print | Product List | Glossary On
Versions: 1 2 3 4 5 6 7 8 9 10 11 12 13 14 15 16 17 18 19 20 21 22 23 24 25 26 27 28 29 30 31 32 33 34 35 36 37
000
FTUS43 KMPX 121739
TAFMSP
TAF
KMSP 121739Z 1218/1324 20005KT P6SM SCT040 OVC070
     FM122200 17006KT P6SM VCSH OVC025
     FM130200 15004KT P6SM BKN040
     FM131100 29006KT P6SM -SN OVC012 PROB30 1311/1315 -FZDZ
     FM131500 32016G29KT P6SM VCSH OVC008
     FM131800 32018G30KT P6SM OVC025=

USA.gov is the U.S. government's official web portal to all federal, state and local government web resources and services.